FW3021 Weather Reports


time (UTC)temp
F
wind
direction
speed
knots
gust
knots
rain 1hr
in
rain 24hr
in
rain mn
in
humidity
%
barometer
mb
20260506002016 41 338 2.6 5.2 0.00 0.02 0.00 40 1009.1
20260506001016 41 225 1.7 5.2 0.00 0.02 0.00 40 1009.0
20260506000016 41 0 1.7 7.8 0.00 0.02 0.00 40 1009.0
20260505235016 41 315 4.3 13.0 0.00 0.02 0.00 39 1009.0
20260505234016 41 315 4.3 9.6 0.00 0.02 0.00 39 1008.9
20260505233016 41 293 1.7 8.7 0.00 0.02 0.00 39 1008.8
20260505232036 42 315 4.3 13.0 0.00 0.02 0.00 38 1008.9
20260505231015 42 315 2.6 7.8 0.00 0.02 0.00 38 1008.9
20260505230035 42 248 1.7 7.0 0.00 0.02 0.00 37 1008.7
20260505225015 42 23 2.6 9.6 0.00 0.02 0.00 37 1008.6
20260505224016 43 293 4.3 12.2 0.00 0.02 0.00 37 1008.4
20260505223016 43 270 2.6 9.6 0.00 0.02 0.00 38 1008.3
20260505222015 43 315 3.5 7.8 0.00 0.02 0.00 38 1008.3
20260505221015 43 248 3.5 12.2 0.00 0.02 0.00 37 1008.3
20260505220015 43 315 5.2 11.3 0.00 0.02 0.00 36 1008.2
20260505215036 43 315 4.3 13.9 0.00 0.02 0.00 36 1008.1
20260505214015 44 315 3.5 9.6 0.00 0.02 0.00 35 1008.0
20260505213015 44 158 3.5 9.6 0.00 0.02 0.00 35 1007.8
20260505212017 43 270 3.5 9.6 0.00 0.02 0.00 35 1007.8
20260505211018 43 315 3.5 7.8 0.00 0.02 0.00 35 1007.9
20260505210017 43 315 3.5 10.4 0.00 0.02 0.00 36 1007.8
20260505205017 43 158 3.5 12.2 0.00 0.02 0.00 36 1007.7
20260505204037 43 248 1.7 7.0 0.00 0.02 0.00 38 1007.7
20260505203017 43 338 4.3 11.3 0.00 0.03 0.00 36 1007.7
20260505202017 42 315 4.3 10.4 0.00 0.03 0.00 38 1007.7
20260505201017 42 225 4.3 13.9 0.00 0.03 0.00 38 1007.8
20260505200017 41 225 2.6 9.6 0.00 0.03 0.00 38 1007.8
20260505195017 41 338 4.3 10.4 0.00 0.03 0.00 38 1007.9
20260505194018 40 315 2.6 7.8 0.00 0.03 0.00 41 1007.8
20260505193017 40 315 4.3 9.6 0.00 0.03 0.00 41 1008.0
20260505192017 40 315 4.3 13.0 0.00 0.03 0.00 40 1007.8
20260505191057 40 203 4.3 12.2 0.00 0.03 0.00 41 1008.0
20260505190017 39 225 3.5 10.4 0.00 0.03 0.00 41 1008.0
20260505185017 39 0 3.5 10.4 0.00 0.03 0.00 42 1007.7
20260505184017 38 225 3.5 7.8 0.00 0.03 0.00 43 1007.6
20260505183017 38 338 3.5 13.9 0.00 0.03 0.00 45 1007.9
20260505182017 37 293 2.6 7.8 0.00 0.03 0.00 45 1007.6
20260505181017 37 158 2.6 11.3 0.00 0.03 0.00 46 1007.4
20260505180037 37 315 3.5 9.6 0.00 0.03 0.00 45 1007.6
20260505175017 37 135 2.6 9.6 0.00 0.03 0.00 46 1007.5
20260505174017 37 293 4.3 14.8 0.00 0.03 0.00 46 1007.4
20260505173017 37 338 5.2 11.3 0.00 0.03 0.00 46 1007.2
20260505172057 37 158 2.6 7.8 0.00 0.03 0.00 46 1007.3
20260505171017 36 23 6.1 13.9 0.00 0.03 0.00 45 1007.3
20260505170017 36 225 3.5 10.4 0.00 0.03 0.00 45 1007.1
20260505165017 36 225 4.3 10.4 0.00 0.03 0.00 46 1007.2
20260505164017 36 338 7.0 12.2 0.00 0.03 0.00 45 1007.0
20260505163017 36 315 5.2 10.4 0.00 0.03 0.00 45 1006.8
20260505162017 37 0 3.5 8.7 0.00 0.03 0.00 44 1006.7
20260505161017 36 0 2.6 9.6 0.00 0.03 0.00 45 1006.5
20260505153017 36 270 1.7 6.1 0.00 0.03 0.00 46 1006.1
20260505152017 36 45 2.6 7.8 0.00 0.03 0.00 46 1006.1
20260505151017 36 45 3.5 7.8 0.00 0.03 0.00 47 1006.1
20260505125017 34 248 1.7 3.5 0.00 0.04 0.00 55 1004.3
20260505124016 34 270 0.9 5.2 0.00 0.04 0.00 55 1004.3
20260505123016 34 270 2.6 8.7 0.00 0.04 0.00 55 1004.2
20260505122016 34 203 2.6 6.1 0.00 0.04 0.00 55 1004.0
20260505121016 34 270 0.9 4.3 0.00 0.04 0.00 56 1004.0
20260505120016 33 293 1.7 8.7 0.00 0.04 0.00 56 1003.9
20260505115016 33 225 2.6 8.7 0.00 0.04 0.00 56 1003.9
20260505114017 34 248 2.6 7.8 0.00 0.04 0.00 56 1003.8
20260505113016 34 248 3.5 11.3 0.00 0.04 0.00 56 1003.8
20260505112016 34 225 2.6 5.2 0.00 0.04 0.00 57 1003.6
20260505111016 34 23 2.6 11.3 0.00 0.04 0.00 56 1003.5
20260505102016 35 225 2.6 13.0 0.00 0.04 0.00 61 1002.6
20260505101056 35 225 0.9 3.5 0.00 0.04 0.00 63 1002.5
20260505100016 35 225 2.6 7.0 0.00 0.04 0.00 63 1002.4
20260505095036 35 225 0.9 4.3 0.00 0.04 0.00 61 1002.3
20260505094016 36 225 0.9 5.2 0.00 0.04 0.00 60 1002.3
20260505093016 36 225 1.7 5.2 0.00 0.04 0.00 59 1002.3
20260505092016 36 225 1.7 4.3 0.00 0.04 0.00 60 1002.3
20260505091016 36 225 1.7 7.8 0.00 0.04 0.00 60 1002.2
20260505090036 36 203 2.6 5.2 0.00 0.04 0.00 60 1001.9
20260505085016 35 315 2.6 7.0 0.00 0.04 0.00 61 1001.5
20260505084016 36 68 1.7 7.8 0.00 0.04 0.00 61 1001.3
20260505083056 36 338 2.6 9.6 0.00 0.04 0.00 61 1001.3
20260505082016 36 180 3.5 9.6 0.00 0.04 0.00 62 1001.3
20260505081056 36 338 3.5 12.2 0.00 0.04 0.00 62 1001.2
20260505080016 36 338 2.6 7.0 0.00 0.04 0.00 62 1001.3
20260505075016 35 338 4.3 12.2 0.00 0.04 0.00 63 1001.3
20260505074036 35 293 2.6 8.7 0.00 0.04 0.00 63 1001.4
20260505073036 35 293 1.7 3.5 0.00 0.04 0.00 63 1001.5
20260505072015 35 248 2.6 8.7 0.00 0.04 0.00 64 1001.6
20260505071016 35 0 0.9 3.5 0.00 0.04 0.00 65 1001.5
20260505070016 35 270 0.9 3.5 0.00 0.04 0.00 67 1001.5
20260505065036 35 270 1.7 5.2 0.00 0.04 0.00 68 1001.6
20260505064016 35 270 1.7 6.1 0.00 0.04 0.00 68 1001.6
20260505063036 35 270 0.9 6.1 0.00 0.04 0.00 68 1001.4
20260505062015 35 248 0.9 3.5 0.00 0.04 0.00 68 1001.5
20260505061015 35 0.0 1.7 0.00 0.04 0.00 67 1001.5
20260505060016 36 0.0 3.5 0.00 0.04 0.00 68 1001.5
20260505055016 36 0.0 3.5 0.00 0.04 0.00 67 1001.5
20260505054016 36 0.0 1.7 0.00 0.04 0.00 67 1001.4
20260505053015 36 270 1.7 5.2 0.00 0.04 0.00 68 1001.3
20260505052017 36 293 0.9 4.3 0.00 0.04 0.00 69 1001.3
20260505051017 36 293 0.9 3.5 0.00 0.04 0.00 70 1001.2
20260505041016 35 0.0 1.7 0.01 0.04 0.04 72 1001.1
20260505040015 35 0.0 1.7 0.00 0.03 0.03 71 1001.1
20260505035016 35 0.0 0.0 0.00 0.03 0.03 71 1001.0
20260505034015 35 0.0 0.0 0.00 0.03 0.03 70 1001.0
20260505033035 36 0.0 0.0 0.01 0.03 0.03 69 1001.0
20260505032015 36 0.0 0.0 0.01 0.03 0.03 69 1000.9
20260505031017 37 0.0 0.0 0.01 0.03 0.03 69 1000.9
20260505030017 37 45 0.9 2.6 0.01 0.03 0.03 69 1000.9
20260505025018 37 23 0.9 4.3 0.01 0.03 0.03 68 1000.7
20260505024038 38 158 2.6 7.8 0.01 0.03 0.03 67 1000.8
20260505023017 39 315 6.1 13.9 0.00 0.02 0.02 63 1001.2
20260505022017 41 315 3.5 7.8 0.00 0.02 0.02 58 1000.5
20260505021017 41 270 1.7 6.1 0.00 0.02 0.02 58 999.9
20260505020017 41 338 2.6 7.8 0.00 0.02 0.02 58 999.5
20260505015017 41 203 0.9 5.2 0.00 0.02 0.02 57 999.4
20260505014037 41 248 2.6 13.0 0.00 0.02 0.02 57 999.4
20260505013015 42 293 2.6 7.8 0.00 0.02 0.02 56 999.1
20260505012017 42 203 3.5 13.0 0.00 0.02 0.02 56 999.0
20260505011017 42 225 2.6 8.7 0.00 0.02 0.02 56 998.8
20260505010037 43 203 3.5 9.6 0.00 0.02 0.02 56 998.7
20260505005037 43 0 5.2 13.0 0.00 0.02 0.02 56 998.8
20260505004017 43 248 3.5 12.2 0.00 0.02 0.02 54 998.6
20260505003017 44 225 5.2 18.2 0.00 0.02 0.02 55 998.7